Home   Weather   Melbourne   Past weeks
Flag for Australia

Past Weather in Melbourne, Victoria, Australia — Yesterday and Last 2 Weeks

Now
61 °F

Passing clouds.


Feels Like: 61 °F
Forecast: 70 / 56 °F
Wind: 6 mph from Northwest

Location: Melbourne Airport

Current Time: Mar 31, 2020 at 10:50:21 am

Latest Report: Mar 31, 2020 at 10:00 am


Visibility: N/A

Pressure: 30.07 "Hg

Humidity: 72%

Dew Point: 52 °F

Location of MelbourneLocation

Past Weather in Melbourne — Graph

°F

Melbourne Temperature Yesterday

Maximum temperature yesterday: 72 °F (at 4:30 pm)
Minimum temperature yesterday: 55 °F (at 10:30 pm)
Average temperature yesterday: 62 °F

High & Low Weather Summary for the Past Weeks

 TemperatureHumidityPressure
High88 °F (Mar 19, 6:00 pm)100% (Mar 27, 7:00 am)30.39 "Hg (Mar 27, 7:00 am)
Low45 °F (Mar 24, 3:00 am)21% (Mar 19, 6:30 pm)29.77 "Hg (Mar 29, 5:30 pm)
Average63 °F63%30.14 "Hg
* Reported Mar 16 9:00 am — Mar 31 9:30 am, Melbourne. Weather by CustomWeather, © 2020

Note: Actual official high and low records may vary slightly from our data, if they occured in-between our weather recording intervals... More about our weather records

Melbourne Weather History for the Previous 24 Hours

Scroll right to see more
 ConditionsComfort  
Time TempWeatherWind HumidityBarometerVisibility
9:30 am
Tue, Mar 31
61 °FPassing clouds.7 mph72%30.07 "HgN/A
9:00 am57 °FPassing clouds.7 mph82%30.07 "HgN/A
8:30 am52 °FPassing clouds.10 mph88%30.07 "HgN/A
8:00 am52 °FPassing clouds.8 mph88%30.07 "HgN/A
7:30 am50 °FPassing clouds.6 mph94%30.04 "HgN/A
7:00 am50 °FClear.8 mph94%30.04 "Hg10 mi
6:30 am50 °FClear.7 mph94%30.01 "Hg10 mi
6:00 am52 °FClear.9 mph94%30.01 "Hg10 mi
5:30 am52 °FClear.8 mph94%30.01 "Hg10 mi
5:00 am52 °FClear.8 mph94%30.01 "Hg10 mi
4:30 am54 °FClear.9 mph94%30.01 "Hg10 mi
4:00 am55 °FPassing clouds.8 mph94%30.01 "HgN/A
3:30 am55 °FPassing clouds.8 mph94%30.01 "HgN/A
3:00 am57 °FPartly cloudy.6 mph88%30.01 "HgN/A
2:30 am59 °FPassing clouds.6 mph82%30.01 "HgN/A
2:00 am57 °FPassing clouds.6 mph88%30.01 "HgN/A
1:30 am54 °FPassing clouds.8 mph94%30.01 "HgN/A
1:00 am55 °FPartly cloudy.7 mph88%30.01 "HgN/A
12:30 am55 °FPassing clouds.7 mph94%30.01 "HgN/A
12:00 am55 °FPassing clouds.7 mph94%30.01 "HgN/A
11:30 pm
Mon, Mar 30
55 °FPassing clouds.7 mph88%30.01 "HgN/A
11:00 pm55 °FClear.6 mph88%30.01 "Hg10 mi
10:30 pm55 °FClear.7 mph82%29.98 "Hg10 mi
10:00 pm59 °FClear.3 mph68%29.98 "Hg10 mi
9:30 pm59 °FClear.6 mph68%29.98 "Hg10 mi
9:00 pm61 °FClear.3 mph68%29.98 "Hg10 mi
8:30 pm61 °FClear.No wind68%29.95 "Hg10 mi
8:00 pm64 °FClear.6 mph56%29.95 "Hg10 mi
7:30 pm64 °FClear.7 mph60%29.95 "Hg10 mi
7:00 pm66 °FSunny.9 mph56%29.92 "Hg10 mi
6:30 pm68 °FPassing clouds.8 mph49%29.92 "HgN/A
6:00 pm70 °FSunny.10 mph40%29.92 "Hg10 mi
5:30 pm70 °FPassing clouds.6 mph43%29.92 "HgN/A
5:08 pm70 °FScattered clouds.8 mph43%29.92 "HgN/A
5:00 pm70 °FPassing clouds.8 mph40%29.92 "HgN/A
4:30 pm72 °FScattered clouds.12 mph38%29.89 "HgN/A
4:00 pm70 °FScattered clouds.8 mph38%29.92 "HgN/A
3:30 pm70 °FScattered clouds.8 mph38%29.92 "HgN/A
3:00 pm68 °FPartly sunny.9 mph43%29.92 "HgN/A
2:30 pm70 °FBroken clouds.8 mph40%29.92 "HgN/A
2:00 pm68 °FPartly sunny.7 mph43%29.92 "HgN/A
1:30 pm68 °FSunny.6 mph49%29.92 "HgN/A
1:00 pm66 °FPartly sunny.8 mph49%29.92 "HgN/A
12:30 pm66 °FPartly sunny.8 mph49%29.95 "HgN/A
12:00 pm66 °FBroken clouds.13 mph49%29.95 "HgN/A
11:00 am64 °FScattered clouds.13 mph60%29.95 "HgN/A
10:30 am63 °FScattered clouds.13 mph59%29.95 "HgN/A
10:00 am63 °FScattered clouds.13 mph64%29.92 "HgN/A
Weather by CustomWeather, © 2020

See weather overview

Advertising